Weather History for Rugby, ND

Change the Weather History Date:

Monday, January 21, 2013

  Actual Average Record
Temperature  
Mean Temperature -15 °F -  
Max Temperature -5 °F 21 °F 41 °F (1964)
Min Temperature -25 °F 1 °F -37 °F (1949)
Degree Days  
Heating Degree Days 80    
Moisture  
Dew Point -21 °F    
Average Humidity 72    
Maximum Humidity 77    
Minimum Humidity 65    
Precipitation  
Precipitation 0.00 in - - ()
Sea Level Pressure  
Sea Level Pressure 30.26 in    
Wind  
Wind Speed 15 mph (WNW)    
Max Wind Speed 22 mph    
Max Gust Speed 28 mph    
Visibility 10 miles    
Events      
Averages and records for this station are not official NWS values.
T = Trace of Precipitation, MM = Missing Value Source: NWS Daily Summary

Daily Weather History Graph

Daily Weather History Graph

Search for Another Location

Airport:

Trip Planner

Search our weather history database for the weather conditions in past years. The results will help you decide how hot, cold, wet, or windy it might be!

Date:

Astronomy

Jan. 21, 2013 Rise Set
Actual Time 8:21 AM CST 5:22 PM CST
Civil Twilight 7:46 AM CST 5:57 PM CST
Nautical Twilight 7:08 AM CST 6:35 PM CST
Astronomical Twilight 6:30 AM CST 7:12 PM CST
Moon 1:01 PM CST (1/21) 3:52 AM CST (1/21)
Length of Visible Light 10h 10m
Length of Day
9h 01m
Waxing Gibbous, 75% of the Moon is Illuminated
Jan 21
Waxing Gibbous
Jan 26
Full
Feb 3
Last Quarter
Feb 10
New
Feb 17
First Quarter

Hourly Weather History & Observations

Time (CST) Temp. Windchill Dew Point Humidity Pressure Visibility Wind Dir Wind Speed Gust Speed Precip Events Conditions
12:15 AM -16.6 °F -43.5 °F -23.8 °F 70% 30.33 in 10.0 mi WNW 19.6 mph - N/A   Clear
12:35 AM -16.6 °F -43.5 °F -23.8 °F 70% 30.33 in 10.0 mi WNW 19.6 mph - N/A   Partly Cloudy
12:55 AM -18.4 °F -45.2 °F -23.8 °F 76% 30.33 in 10.0 mi WNW 18.4 mph - N/A   Partly Cloudy
1:15 AM -18.4 °F -44.5 °F -23.8 °F 76% 30.33 in 10.0 mi WNW 17.3 mph - N/A   Clear
1:35 AM -18.4 °F -42.9 °F -25.6 °F 70% 30.33 in 10.0 mi WNW 15.0 mph - N/A   Clear
1:55 AM -18.4 °F -42.1 °F -25.6 °F 70% 30.33 in 10.0 mi WNW 13.8 mph - N/A   Unknown
2:15 AM -18.4 °F -40.2 °F -25.6 °F 70% 30.32 in 10.0 mi WNW 11.5 mph - N/A   Clear
2:35 AM -20.2 °F -42.4 °F -25.6 °F 76% 30.32 in 10.0 mi WNW 11.5 mph - N/A   Clear
2:55 AM -22.0 °F -43.6 °F -27.4 °F 76% 30.33 in 10.0 mi WNW 10.4 mph - N/A   Clear
3:15 AM -22.0 °F -43.6 °F -27.4 °F 76% 30.33 in 10.0 mi WNW 10.4 mph - N/A   Clear
3:35 AM -22.0 °F -42.3 °F -27.4 °F 76% 30.32 in 10.0 mi WNW 9.2 mph - N/A   Clear
3:55 AM -22.0 °F -39.4 °F -29.2 °F 69% 30.32 in 10.0 mi West 6.9 mph - N/A   Clear
4:15 AM -22.0 °F -41.0 °F -29.2 °F 69% 30.31 in 10.0 mi WNW 8.1 mph - N/A   Clear
4:55 AM -22.0 °F -45.7 °F -29.2 °F 69% 30.29 in 10.0 mi West 12.7 mph - N/A   Clear
5:15 AM -23.8 °F -46.9 °F -29.2 °F 76% 30.29 in 10.0 mi West 11.5 mph - N/A   Unknown
5:35 AM -23.8 °F -45.8 °F -29.2 °F 76% 30.29 in 10.0 mi West 10.4 mph - N/A   Clear
5:55 AM -25.6 °F -50.2 °F -31.0 °F 76% 30.29 in 10.0 mi West 12.7 mph - N/A   Partly Cloudy
6:15 AM -23.8 °F -46.9 °F -29.2 °F 76% 30.28 in 10.0 mi West 11.5 mph - N/A   Partly Cloudy
6:35 AM -22.0 °F -45.7 °F -29.2 °F 69% 30.28 in 10.0 mi WNW 12.7 mph - N/A   Clear
6:55 AM -22.0 °F -43.6 °F -29.2 °F 69% 30.29 in 10.0 mi WNW 10.4 mph - N/A   Unknown
7:15 AM -22.0 °F -44.7 °F -29.2 °F 69% 30.28 in 10.0 mi West 11.5 mph - N/A   Unknown
7:35 AM -22.0 °F -43.6 °F -29.2 °F 69% 30.28 in 10.0 mi West 10.4 mph - N/A   Clear
7:55 AM -23.8 °F -48.0 °F -29.2 °F 76% 30.27 in 10.0 mi West 12.7 mph - N/A   Clear
8:15 AM -22.0 °F -48.4 °F -29.2 °F 69% 30.27 in 10.0 mi West 16.1 mph - N/A   Clear
8:35 AM -22.0 °F -48.4 °F -27.4 °F 76% 30.26 in 10.0 mi West 16.1 mph - N/A   Scattered Clouds
8:55 AM -22.0 °F -49.1 °F -27.4 °F 76% 30.27 in 10.0 mi WNW 17.3 mph - N/A   Clear
9:15 AM -22.0 °F -47.5 °F -27.4 °F 76% 30.27 in 10.0 mi WNW 15.0 mph - N/A   Unknown
9:35 AM -20.2 °F -45.2 °F -27.4 °F 69% 30.27 in 10.0 mi West 15.0 mph - N/A   Partly Cloudy
9:55 AM -18.4 °F -43.7 °F -25.6 °F 70% 30.27 in 10.0 mi West 16.1 mph - N/A   Clear
10:15 AM -18.4 °F -42.9 °F -23.8 °F 76% 30.28 in 10.0 mi WNW 15.0 mph - N/A   Clear
10:35 AM -16.6 °F -42.1 °F -22.0 °F 76% 30.27 in 10.0 mi WNW 17.3 mph - N/A   Clear
10:55 AM -14.8 °F -37.5 °F -22.0 °F 70% 30.28 in 10.0 mi WNW 13.8 mph - N/A   Clear
11:15 AM -13.0 °F -39.4 °F -20.2 °F 70% 30.27 in 10.0 mi WNW 20.7 mph - N/A   Clear
11:35 AM -11.2 °F -37.6 °F -18.4 °F 70% 30.27 in 10.0 mi WNW 21.9 mph 27.6 mph N/A   Clear
11:55 AM -11.2 °F -36.4 °F -18.4 °F 70% 30.26 in 10.0 mi WNW 19.6 mph 26.5 mph N/A   Clear
12:15 PM -9.4 °F -35.2 °F -18.4 °F 65% 30.25 in 10.0 mi WNW 21.9 mph - N/A   Clear
12:35 PM -9.4 °F -34.1 °F -16.6 °F 71% 30.24 in 10.0 mi WNW 19.6 mph - N/A   Clear
12:55 PM -7.6 °F -31.1 °F -16.6 °F 65% 30.23 in 10.0 mi WNW 18.4 mph - N/A   Clear
1:15 PM -7.6 °F -32.3 °F -16.6 °F 65% 30.23 in 10.0 mi WNW 20.7 mph - N/A   Clear
1:35 PM -7.6 °F -32.3 °F -16.6 °F 65% 30.23 in 10.0 mi NW 20.7 mph - N/A   Clear
1:55 PM -5.8 °F -29.4 °F -14.8 °F 65% 30.23 in 10.0 mi NW 19.6 mph - N/A   Clear
2:15 PM -5.8 °F -30.5 °F -14.8 °F 65% 30.22 in 10.0 mi NW 21.9 mph - N/A   Clear
2:35 PM -5.8 °F -29.9 °F -14.8 °F 65% 30.23 in 10.0 mi NW 20.7 mph 27.6 mph N/A   Clear
2:55 PM -5.8 °F -29.4 °F -13.0 °F 71% 30.23 in 10.0 mi NW 19.6 mph - N/A   Clear
3:15 PM -5.8 °F -29.4 °F -14.8 °F 65% 30.23 in 10.0 mi NW 19.6 mph - N/A   Clear
3:35 PM -5.8 °F -29.4 °F -14.8 °F 65% 30.23 in 10.0 mi NW 19.6 mph - N/A   Clear
3:55 PM -5.8 °F -29.9 °F -14.8 °F 65% 30.23 in 10.0 mi NW 20.7 mph - N/A   Clear
4:15 PM -5.8 °F -28.2 °F -14.8 °F 65% 30.23 in 10.0 mi NW 17.3 mph - N/A   Clear
4:35 PM -7.6 °F -30.5 °F -14.8 °F 71% 30.23 in 10.0 mi NW 17.3 mph - N/A   Clear
4:55 PM -7.6 °F -27.5 °F -14.8 °F 71% 30.24 in 10.0 mi NW 12.7 mph - N/A   Clear
5:15 PM -9.4 °F -29.8 °F -16.6 °F 71% 30.23 in 10.0 mi WNW 12.7 mph - N/A   Clear
5:35 PM -9.4 °F -30.6 °F -16.6 °F 71% 30.23 in 10.0 mi NW 13.8 mph - N/A   Clear
5:55 PM -9.4 °F -27.9 °F -16.6 °F 71% 30.23 in 10.0 mi WNW 10.4 mph - N/A   Clear
6:15 PM -11.2 °F -31.1 °F -16.6 °F 77% 30.23 in 10.0 mi NW 11.5 mph - N/A   Clear
6:35 PM -11.2 °F -31.1 °F -16.6 °F 77% 30.23 in 10.0 mi WNW 11.5 mph - N/A   Clear
6:55 PM -11.2 °F -29.0 °F -16.6 °F 77% 30.23 in 10.0 mi NW 9.2 mph - N/A   Clear
7:15 PM -13.0 °F -27.0 °F -18.4 °F 77% 30.23 in 10.0 mi NW 5.8 mph - N/A   Clear
7:35 PM -11.2 °F -26.4 °F -18.4 °F 70% 30.23 in 10.0 mi WNW 6.9 mph - N/A   Clear
7:55 PM -11.2 °F -31.1 °F -16.6 °F 77% 30.23 in 10.0 mi WNW 11.5 mph - N/A   Clear
8:15 PM -13.0 °F -31.3 °F -18.4 °F 77% 30.23 in 10.0 mi WNW 9.2 mph - N/A   Clear
8:35 PM -13.0 °F -32.4 °F -18.4 °F 77% 30.23 in 10.0 mi WNW 10.4 mph - N/A   Clear
8:55 PM -11.2 °F -30.1 °F -16.6 °F 77% 30.22 in 10.0 mi WNW 10.4 mph - N/A   Clear
9:15 PM -11.2 °F -29.0 °F -16.6 °F 77% 30.23 in 10.0 mi WNW 9.2 mph - N/A   Clear
9:35 PM -11.2 °F -27.8 °F -16.6 °F 77% 30.22 in 10.0 mi WNW 8.1 mph - N/A   Clear
9:55 PM -11.2 °F -26.4 °F -18.4 °F 70% 30.23 in 10.0 mi West 6.9 mph - N/A   Clear
10:15 PM - - - N/A% 30.22 in 10.0 mi West 6.9 mph - N/A   Clear
10:35 PM -11.2 °F -23.0 °F -18.4 °F 70% 30.23 in 10.0 mi NW 4.6 mph - N/A   Clear
10:55 PM -13.0 °F -28.6 °F -18.4 °F 77% 30.23 in 10.0 mi WNW 6.9 mph - N/A   Clear
11:15 PM -13.0 °F -27.0 °F -18.4 °F 77% 30.23 in 10.0 mi WNW 5.8 mph - N/A   Clear
11:35 PM -13.0 °F -27.0 °F -18.4 °F 77% 30.23 in 10.0 mi WNW 5.8 mph - N/A   Clear
11:55 PM -13.0 °F -25.1 °F -18.4 °F 77% 30.23 in 10.0 mi WNW 4.6 mph - N/A   Clear